TimeEST,TemperatureF,Dew PointF,Humidity,Sea Level PressureIn,VisibilityMPH,Wind Direction,Wind SpeedMPH,Gust SpeedMPH,PrecipitationIn,Events,Conditions,WindDirDegrees,DateUTC
12:21 AM,3.2,-0.4,85,29.67,2.0,Calm,Calm,-,0.00,Snow,Light Snow,0,2013-01-22 05:21:00
12:37 AM,3.2,1.4,92,29.66,5.0,Calm,Calm,-,0.00,Snow,Light Snow,0,2013-01-22 05:37:00
12:51 AM,3.9,-0.0,84,29.77,3.0,Calm,Calm,-,0.00,Snow,Light Snow,0,2013-01-22 05:51:00
12:56 AM,3.2,-0.4,85,29.66,1.8,NE,4.6,-,0.00,Snow,Light Snow,40,2013-01-22 05:56:00
1:08 AM,3.2,-0.4,85,29.66,3.0,NNE,3.5,-,0.00,Snow,Light Snow,30,2013-01-22 06:08:00
1:48 AM,3.2,-0.4,85,29.67,6.0,Calm,Calm,-,0.00,,Overcast,0,2013-01-22 06:48:00
1:51 AM,3.0,-0.0,87,29.78,5.0,NNE,3.5,-,0.00,Snow,Light Snow,20,2013-01-22 06:51:00
2:51 AM,1.9,-2.0,83,29.79,10.0,Calm,Calm,-,0.00,,Overcast,0,2013-01-22 07:51:00
3:51 AM,-4.0,-8.0,83,29.79,10.0,Calm,Calm,-,N/A,,Overcast,0,2013-01-22 08:51:00
5:51 AM,-9.0,-13.0,83,29.82,2.5,Calm,Calm,-,N/A,,Overcast,0,2013-01-22 10:51:00
6:03 AM,-9.4,-14.8,77,29.70,10.0,Calm,Calm,-,N/A,,Overcast,0,2013-01-22 11:03:00
6:51 AM,-9.0,-14.1,79,29.85,10.0,Calm,Calm,-,N/A,,Overcast,0,2013-01-22 11:51:00
7:06 AM,-11.2,-14.8,84,29.72,7.0,Calm,Calm,-,N/A,,Overcast,0,2013-01-22 12:06:00
7:46 AM,-7.6,-11.2,84,29.73,2.5,SW,3.5,-,0.00,Snow,Light Snow,220,2013-01-22 12:46:00
7:51 AM,-7.1,-9.9,87,29.86,1.8,SW,3.5,-,0.00,Snow,Light Snow,220,2013-01-22 12:51:00
8:46 AM,-0.4,-2.2,92,29.74,3.0,SSW,4.6,-,0.00,,Overcast,210,2013-01-22 13:46:00
8:51 AM,1.0,-2.0,87,29.86,3.0,SSW,4.6,-,0.00,,Mostly Cloudy,210,2013-01-22 13:51:00
9:08 AM,1.4,-0.4,92,29.74,7.0,SSW,5.8,-,N/A,,Partly Cloudy,200,2013-01-22 14:08:00
9:51 AM,5.0,1.0,84,29.86,10.0,SSW,5.8,-,N/A,,Mostly Cloudy,210,2013-01-22 14:51:00
10:04 AM,6.8,1.4,79,29.75,9.0,SSW,8.1,-,N/A,,Mostly Cloudy,210,2013-01-22 15:04:00
10:49 AM,6.8,1.4,79,29.76,10.0,SW,8.1,-,N/A,,Overcast,230,2013-01-22 15:49:00
10:51 AM,7.0,1.0,77,29.86,10.0,WSW,8.1,-,N/A,,Overcast,250,2013-01-22 15:51:00
11:42 AM,8.6,-0.4,67,29.75,7.0,West,8.1,19.6,N/A,,Overcast,270,2013-01-22 16:42:00
11:48 AM,8.6,1.4,73,29.75,1.8,West,9.2,19.6,0.00,Snow,Light Snow,260,2013-01-22 16:48:00
11:51 AM,7.0,1.0,77,29.87,1.2,WSW,9.2,-,0.00,Snow,Light Snow,250,2013-01-22 16:51:00
12:00 PM,6.8,1.4,79,29.76,0.8,West,10.4,18.4,0.00,Snow,Light Snow,270,2013-01-22 17:00:00
12:07 PM,6.8,-0.4,72,29.76,1.8,West,10.4,20.7,0.00,Snow,Light Snow,270,2013-01-22 17:07:00
12:10 PM,6.8,-0.4,72,29.75,3.0,West,8.1,20.7,0.00,Snow,Light Snow,280,2013-01-22 17:10:00
12:18 PM,6.8,-0.4,72,29.75,1.8,Variable,6.9,16.1,0.00,Snow,Light Snow,0,2013-01-22 17:18:00
12:29 PM,6.8,-0.4,72,29.75,2.5,West,6.9,16.1,0.00,Snow,Light Snow,270,2013-01-22 17:29:00
12:40 PM,6.8,-0.4,72,29.75,1.8,West,10.4,-,0.00,Snow,Light Snow,270,2013-01-22 17:40:00
12:51 PM,7.0,-0.0,73,29.87,0.5,West,8.1,-,0.00,Snow,Snow,280,2013-01-22 17:51:00
1:14 PM,6.8,-0.4,72,29.77,1.2,West,10.4,20.7,0.00,Snow,Light Snow,280,2013-01-22 18:14:00
1:29 PM,6.8,-2.2,67,29.77,3.0,West,6.9,-,0.00,Snow,Light Snow,270,2013-01-22 18:29:00
1:47 PM,6.8,-7.6,52,29.77,6.0,West,11.5,24.2,0.00,,Haze,280,2013-01-22 18:47:00
1:51 PM,6.1,-8.0,53,29.89,6.0,West,8.1,24.2,0.00,,Haze,270,2013-01-22 18:51:00
2:51 PM,3.9,-11.0,50,29.93,8.0,West,9.2,21.9,N/A,,Mostly Cloudy,270,2013-01-22 19:51:00
3:51 PM,1.9,-11.9,52,29.96,10.0,West,9.2,16.1,N/A,,Scattered Clouds,280,2013-01-22 20:51:00
4:51 PM,1.0,-13.0,52,30.00,10.0,WNW,6.9,21.9,N/A,,Overcast,290,2013-01-22 21:51:00
5:51 PM,-0.0,-11.9,57,30.02,10.0,Variable,3.5,-,N/A,,Overcast,0,2013-01-22 22:51:00
6:51 PM,-0.9,-11.9,60,30.03,10.0,Variable,3.5,-,N/A,,Overcast,0,2013-01-22 23:51:00
7:51 PM,-2.0,-11.0,66,30.03,6.0,WSW,3.5,-,N/A,,Haze,240,2013-01-23 00:51:00
8:51 PM,-2.9,-9.0,75,30.02,8.0,Calm,Calm,-,N/A,,Overcast,0,2013-01-23 01:51:00
9:51 PM,-2.0,-11.0,66,30.02,10.0,WSW,12.7,18.4,N/A,,Overcast,250,2013-01-23 02:51:00
10:51 PM,-6.0,-14.1,68,30.05,10.0,Variable,5.8,-,N/A,,Overcast,0,2013-01-23 03:51:00
11:51 PM,-9.0,-14.1,79,30.06,5.0,Calm,Calm,-,N/A,,Haze,0,2013-01-23 04:51:00